STARLINK-36117

Last updated on Mon Dec 15 2025 00:02:12 GMT+0000 (Coordinated Universal Time)

1 66865U 25281T 25348.25003472 -.01283939 00000+0 -53396-2 0 9998 2 66865 43.0007 112.9220 0001648 265.9435 301.5571 15.87329052 1642
UTC large
Height (km)
Speed (km/s)
/
Latitude / Longitude
Inclination (degrees)
Orbital Period (minutes)
Azimuth
Elevation
Range (km)
Doppler Factor

Next 0 passes for location: London (51.5072 / 0.1276)

Sorry there are no passes over London.